www.pogodaiklimat.ru

Погода и климат >> Архив погоды >> Иран >> Бендер-Ленге


ПОГОДА в Бендер-Ленге

  • Прогноз погоды в Бендер-Ленге
  • Монитор погоды в Бендер-Ленге

АРХИВ ПОГОДЫ в Бендер-Ленге

Время (UTC), дата Ветер
(напр.,м/с)
 
Видим.   Явления Облачность Т
(С)
Тd
(С)
f
(%)
Тe
(С)
Тes
(С)
Комфортность P
(гПа)
Po
(гПа)
Тmin
(С)
Tmax
(С)
R
(мм)
R24
(мм)
S
(см)
09 19.03 З 6 6000 м мгла ясно +24.4 +8.9 37 +25 +32 комфорт 1013.6 1011.3
12 19.03 З 7 6000 м мгла ясно +24.9 +9.2 37 +26 +27 жарко 1011.6 1009.3
15 19.03 З 5 6000 м мгла 1/0
[Ci fib]
+20.9 +12.6 59 +23 +23 комфорт 1011.8 1009.5 +25.1 666
18 19.03 СЗ 3 6000 м мгла 1/0
[Ci fib]
+19.5 +12.8 65 +21 +21 комфорт 1012.8 1010.5
21 19.03 С 2 6000 м мгла ясно +16.9 +11.4 70 +17 +17 1012.2 1009.9
00 20.03 СВ 3 6000 м мгла ясно +16.8 +10.0 64 +17 +17 1011.3 1009.0
03 20.03 СВ 2 10 км ясно +14.6 +10.0 74 +14 +15 1012.3 1010.0 +14.4
06 20.03 штиль 0 10 км 1/0
[Ci fib]
+22.4 +9.9 45 +24 +40 комфорт 1013.8 1011.5
09 20.03 Ю 4 10 км 1/0
[Ci fib]
+24.0 +14.2 54 +26 +38 жарко 1012.8 1010.5
12 20.03 ЮЗ 4 10 км 3/0
[Ci fib]
+23.5 +13.6 54 +26 +30 жарко 1010.7 1008.4
15 20.03 З 4 10 км 3/0
[Ci fib]
+21.4 +14.6 65 +24 +24 комфорт 1011.3 1009.0 +24.2
18 20.03 З 3 10 км ясно +20.5 +15.5 73 +24 +24 комфорт 1012.3 1010.1
21 20.03 СЗ 2 10 км ясно +18.6 +14.3 76 +20 +20 1012.1 1009.9
00 21.03 СВ 2 10 км ясно +18.3 +14.9 81 +19 +19 1011.2 1009.0
03 21.03 штиль 0 6000 м дымка ясно +16.9 +14.6 86 +17 +18 1011.9 1009.7 +14.5
06 21.03 Ю 2 4000 м мгла ясно +23.1 +18.0 73 +29 +41 очень
душно
1013.8 1011.5
09 21.03 Ю 5 4000 м мгла ясно +23.9 +17.2 66 +28 +37 душно 1013.6 1011.3 666
12 21.03 З 3 4000 м мгла ясно +24.6 +17.6 65 +29 +34 душно 1012.1 1009.9
15 21.03 З 2 4000 м мгла 4/0
[Ac trans]
+22.8 +16.6 68 +27 +27 душно 1011.8 1009.6 +24.7 666
18 21.03 ЮЗ 2 3500 м дымка ясно +21.8 +21.3 97 +28 +28 душно 1013.5 1011.3
21 21.03 С 2 3500 м дымка 3/3 900 м
[Sc]
+20.9 +20.9 100 +27 +27 душно 1012.4 1010.2
00 22.03 ЮЗ 2 3500 м дымка 5/0
[Ac trans]
+20.6 +20.6 100 +26 +26 душно 1012.4 1010.2
03 22.03 С 3 3500 м дымка 8/8 900 м
[Sc]
+20.5 +18.4 88 +25 +25 комфорт 1014.9 1012.6 +16.8
06 22.03 Ю 2 4000 м мгла 8/6 900 м
[Sc Ac trans]
+24.4 +17.0 63 +28 +31 душно 1016.3 1014.0
09 22.03 Ю 4 5000 м мгла 6/4 900 м
[Sc Ac trans]
+25.4 +20.0 72 +31 +37 очень
душно
1015.3 1013.0
12 22.03 В 4 5000 м мгла 9/5 900 м
[Sc Ac As]
+24.3 +18.3 69 +29 +30 душно 1013.1 1010.9
15 22.03 ЮВ 3 5000 м гроза, ливневой дождь 9/1 750 м
[Cb cap As op]
+21.8 +15.8 69 +25 +25 комфорт 1013.6 1011.4 +29.3
18 22.03 ЮВ 4 5000 м мгла 1/0
[Ci fib]
+22.0 +18.0 78 +27 +27 душно 1015.1 1012.8 0.4
21 22.03 В 3 5000 м дымка 9/8 900 м
[Sc Ac trans]
+21.4 +18.5 84 +26 +26 душно 1014.1 1011.8
00 23.03 В 3 4000 м мгла 5/5 900 м
[Sc]
+21.5 +15.3 68 +25 +25 комфорт 1012.8 1010.6
03 23.03 В 7 5000 м мгла 8/1 750 м
[Cu med, cong As op]
+21.8 +15.8 69 +25 +26 комфорт 1013.9 1011.6 +19.9
06 23.03 В 9 6000 м мгла 5/3 900 м
[Sc Ac trans]
+24.1 +13.1 50 +26 +27 жарко 1016.1 1013.8
09 23.03 В 11 10 км 9/5 900 м
[Sc Ac As]
+22.9 +14.5 59 +27 +27 душно 1014.4 1012.1 666
12 23.03 В 10 8000 м пыльный позёмок 9/4 900 м
[Sc Ac As]
+21.7 +16.1 70 +25 +25 комфорт 1013.1 1010.9
15 23.03 В 9 7000 м пыльный позёмок 9/8 900 м
[Sc Ac As]
+20.4 +16.3 77 +23 +23 комфорт 1012.7 1010.4 +24.2 666
18 23.03 В 8 7000 м пыльный позёмок 9/4 900 м
[Sc Ac As]
+20.8 +16.0 74 +24 +24 комфорт 1013.2 1010.9
21 23.03 В 7 7000 м пыльный позёмок 8/3 900 м
[Sc Ac As]
+20.6 +16.0 75 +23 +23 комфорт 1011.3 1009.0
00 24.03 В 7 6000 м мгла ясно +20.4 +15.0 71 +23 +23 комфорт 1010.0 1007.7
03 24.03 В 8 7000 м пыльный позёмок 4/0
[Ac As]
+21.2 +14.6 66 +24 +24 комфорт 1011.9 1009.6 +20.3 666
06 24.03 В 7 8000 м мгла 3/3 900 м
[Sc Ac trans]
+24.5 +13.6 51 +27 +29 жарко 1013.1 1010.8
09 24.03 В 10 7000 м пыльный позёмок 1/0
[As trans]
+24.0 +15.4 59 +27 +28 жарко 1011.6 1009.4
12 24.03 В 11 6000 м пыльный позёмок 4/0
[Ac trans]
+24.2 +15.1 57 +27 +27 жарко 1009.5 1007.3
15 24.03 В 10 6000 м пыльный позёмок ясно +22.5 +16.5 69 +27 +27 душно 1009.9 1007.7 +25.4 666
18 24.03 В 10 6000 м пыльный позёмок 4/0
[Ac trans]
+22.3 +15.1 64 +26 +26 жарко 1011.3 1009.0
21 24.03 В 9 5000 м пыльный позёмок ясно +22.4 +15.0 63 +26 +26 жарко 1010.5 1008.2
00 25.03 В 9 5000 м пыльный позёмок 3/0
[Ac trans]
+23.0 +15.4 62 +27 +27 душно 1009.8 1007.5
03 25.03 В 10 6000 м пыльный позёмок 5/0
[As trans]
+22.8 +15.9 65 +27 +27 душно 1011.0 1008.7 +20.9 666
06 25.03 В 9 6000 м в посл. час гроза 10/4 900 м
[Cb calv As op]
+23.7 +16.9 66 +27 +28 жарко 1013.5 1011.2
09 25.03 В 8 6000 м пыльный позёмок 10/1 900 м
[Cb calv As op]
+24.4 +17.2 64 +28 +29 душно 1012.7 1010.4
12 25.03 В 11 6000 м пыльный позёмок 9/3 900 м
[Cb calv Ac As]
+25.0 +16.4 59 +28 +28 жарко 1009.1 1006.8
15 25.03 В 9 6000 м пыльный позёмок 10/4 900 м
[Cb calv As op]
+23.9 +15.9 61 +27 +27 жарко 1010.8 1008.5 +25.1
18 25.03 В 8 6000 м пыльный позёмок 9/0 2000 м
[As op]
+25.2 +14.3 51 +28 +28 жарко 1011.0 1008.7
21 25.03 В 7 6000 м мгла 9/0 2000 м
[As op]
+23.5 +16.9 66 +27 +27 душно 1010.1 1007.8
00 26.03 В 7 6000 м мгла 9/0 2000 м
[As op]
+23.6 +16.4 64 +27 +27 жарко 1010.1 1007.8
03 26.03 В 8 6000 м пыльный позёмок 10/4 900 м
[Cb calv As op]
+23.0 +18.6 76 +29 +29 очень
душно
1011.6 1009.3 +22.7 666
06 26.03 В 8 6000 м 10/4 750 м
[Cb calv As op]
+23.7 +19.2 76 +29 +29 душно 1013.1 1010.8

 

Местоположение метеостанции Бендер-Ленге (Иран): широта 26.58 долгота 54.83 высота над уровнем моря 14 м.

В архиве по умолчанию представлена погода в Бендер-Ленге за последнюю неделю. Архивные данные за месяц целиком и за предыдущие месяцы, начиная с января 2011 года, Вы можете получить, выбрав интересующий диапазон дат из раскрывающегося списка и нажав кнопку "Ввод!".


*Определитесь, кто Вы:
робот инопланетянин человек

Внимание! Время в таблицах - всемирное. Для получения местного времени необходимо прибавить поправку, которая равна 3.5 ч.

Смотрите также архив погоды в соседних городах и на ближайших метеорологических станциях:

Погода на Острове Сирри (Иран) (80 км)
Погода на Острове Абу-Муса (Иран) (83 км)
Погода на Острове Киш (Иран) (85 км)
Погода в Эль-Хасабе (Оман) (146 км)
Погода в Эль-Хасаб аэропорту (Оман) (147 км)
Погода в Рай-эль-Хайма аэропорту (ОАЭ) (153 км)
Погода в Шардже (ОАЭ) (155 км)
Погода в Дубае (ОАЭ) (156 км)
Погода в Бендер-Аббасе (Иран) (169 км)
Погода в Дибе (Оман) (178 км)

Пояснения к столбцам:

Ветер - указаны скорость ветра в м/с - средняя за 10 мин, порывы в срок и между сроками (в фигурных скобках) и направление, откуда дует ветер: С - северный, СВ - северо-восточный, В - восточный, ЮВ - юго-восточный, Ю - южный, ЮЗ - юго-западный, З - западный, СЗ - северо-западный.
Видимость - горизонтальная дальность видимости в метрах или километрах. При видимости от 1 до 10 км при отсутствии осадков обычно наблюдается дымка, при ухудшении видимости до 1 км и менее - туман. В сухую погоду видимость может ухудшаться дымом, пылью или мглою.
Явления - указаны атмосферные явления, наблюдавшиеся в срок или в последний час перед сроком; фигурными скобками обозначены явления, наблюдавшиеся между сроками (за 1-3 часа до срока); квадратными скобками обозначены град или гололедные отложения с указанием их диаметра в мм.
Облачность - указаны через наклонную черту общая и нижняя облачность в баллах и высота нижней границы облаков в метрах; квадратными скобками обозначены формы облаков: Ci - перистые, Cs - перисто-слоистые, Cc - перисто-кучевые, Ac - высококучевые, As - высокослоистые, Sc - слоисто-кучевые, Ns - слоисто-дождевые, Cu - кучевые, Cb - кучево-дождевые. Подробнее классификацию облаков см. в Атласе облаков (PDF).
T - Температура воздуха - температура, измеренная на высоте 2 м над землей.
Td - Температура точки росы - температура, при понижении до которой содержащийся в воздухе водяной пар достигнет насыщения.
f - Относительная влажность воздуха - влажноcть воздуха, измеренная на высоте 2 м над землей.
Te - Эффективная температура - температура, которую ощущает одетый по сезону человек в тени. Характеристика душности погоды. При расчете учитывается влияние влажности воздуха и скорости ветра на теплоощущения человека.
Tes - Эффективная температура на солнце - температура, которую ощущает человек, с поправкой на солнечный нагрев. Характеристика знойности погоды. Зависит от высоты солнца над горизонтом, облачности и скорости ветра. Ночью, в пасмурную погоду, а также при ветре 12 м/с и более поправка равна нулю.
P - Атмосферное давление - приведенное к уровню моря атмосферное давление.
Po - Атмосферное давление - измеренное на уровне метеостанции атмосферное давление.
Tmin - Минимальная температура - минимум температуры воздуха на высоте 2 м над землей.
Tmax - Максимальная температура - максимум температуры воздуха на высоте 2 м над землей.
R - Количество осадков - Количество выпавших осадков за период времени, мм. При наведении курсора мыши на число - период времени, за который выпало указанное количество осадков.
R24 - Количество осадков - Количество выпавших осадков за 24 часа, мм.
S - Снежный покров - Высота снежного покрова, см. При наведении курсора мыши на число - состояние снежного покрова и степень покрытия местности в баллах.